ISS (ZARYA) 1 25544U 98067A 26235.72586232 .00009235 00000+0 17193-3 0 9995 2 25544 51.6333 325.8142 0007700 76.3746 283.8100 15.49592931582224 POISK 1 36086U 09060A 26235.72586232 .00009235 00000+0 17193-3 0 9993 2 36086 51.6333 325.8142 0007700 76.3746 283.8100 15.49592931582474 CSS (TIANHE) 1 48274U 21035A 26235.49167945 .00015233 00000+0 19266-3 0 9999 2 48274 41.4684 273.4428 0001586 254.2728 105.7935 15.59190448303679 ISS (NAUKA) 1 49044U 21066A 26235.72586232 .00009235 00000+0 17193-3 0 9991 2 49044 51.6333 325.8142 0007700 76.3746 283.8100 15.49592931582517 FREGAT DEB 1 49271U 11037PF 26235.84562646 .00015504 00000+0 23547-1 0 9990 2 49271 51.6372 158.2732 0925336 71.7361 298.1875 12.43710398233466 CSS (WENTIAN) 1 53239U 22085A 26235.49167945 .00015233 00000+0 19266-3 0 9992 2 53239 41.4684 273.4428 0001586 254.2728 105.7935 15.59190448288230 CSS (MENGTIAN) 1 54216U 22143A 26235.49167945 .00015233 00000+0 19266-3 0 9993 2 54216 41.4684 273.4428 0001586 254.2728 105.7935 15.59190448304033 HRC MONOBLOCK CAMERA 1 66052U 98067XR 26235.57429115 .00141453 00000+0 53727-3 0 9995 2 66052 51.6183 290.0785 0006469 17.5265 342.5961 15.86645422 48653 SZ-21 MODULE 1 66515U 25246C 26235.74663733 .00056441 00000+0 26024-3 0 9995 2 66515 41.4699 244.6724 0008245 148.4990 211.6351 15.82603126 44428 DUPLEX 1 66906U 98067XS 26235.92778701 .00041242 00000+0 37302-3 0 9996 2 66906 51.6267 306.1176 0003926 50.8863 309.2482 15.67656970 41263 KNACKSAT-2 1 67683U 98067XZ 26235.54672917 .00056213 00000+0 53425-3 0 9997 2 67683 51.6278 314.0993 0007201 78.4258 281.7545 15.66272106 30814 GXIBA-1 1 67685U 98067YB 26235.51495795 .00072447 00000+0 60506-3 0 9998 2 67685 51.6247 312.3631 0007993 72.8751 287.3121 15.69335643 30839 UITMSAT-2 1 67686U 98067YC 26234.61196264 .00123859 00000+0 74615-3 0 9998 2 67686 51.6247 313.0523 0007717 27.8483 332.2929 15.76763821 30741 LEOPARD 1 67687U 98067YD 26234.61036693 .00077904 00000+0 65679-3 0 9997 2 67687 51.6272 317.6064 0007337 37.3882 322.7624 15.69084178 30601 HMU-SAT2 1 67688U 98067YE 26235.21491136 .00094223 00000+0 67084-3 0 9997 2 67688 51.6256 311.8644 0007104 35.1874 324.9593 15.73040574 30733 CREW DRAGON 12 1 67796U 26031A 26235.72586232 .00009235 00000+0 17193-3 0 9992 2 67796 51.6333 325.8142 0007700 76.3746 283.8100 15.49592931582601 PROGRESS-MS 33 1 68319U 26058A 26235.72586232 .00009235 00000+0 17193-3 0 9993 2 68319 51.6333 325.8142 0007700 76.3746 283.8100 15.49592931582636 CYGNUS NG-24 1 68689U 26079A 26235.72586232 .00009235 00000+0 17193-3 0 9996 2 68689 51.6333 325.8142 0007700 76.3746 283.8100 15.49592931582726 PROGRESS-MS 34 1 68837U 26093A 26235.72586232 .00009235 00000+0 17193-3 0 9997 2 68837 51.6333 325.8142 0007700 76.3746 283.8100 15.49592931582765 TIANZHOU-10 1 69049U 26102A 26235.49167945 .00015233 00000+0 19266-3 0 9992 2 69049 41.4684 273.4428 0001586 254.2728 105.7935 15.59190448304000 SHENZHOU-23 (SZ-23) 1 69180U 26113A 26235.49167945 .00015233 00000+0 19266-3 0 9990 2 69180 41.4684 273.4428 0001586 254.2728 105.7935 15.59190448303858